402  
ASUS44 KMOB 020213  
RWRMOB  
REGIONAL WEATHER ROUNDUP  
NATIONAL WEATHER SERVICE MOBILE AL  
900 PM CDT SUN AUG 01 2021  
 
NOTE: "FAIR" INDICATES FEW OR NO CLOUDS BELOW 12,000 FEET WITH NO  
SIGNIFICANT WEATHER AND/OR S TO VISIBILITY
.  
 
* THESE STATIONS ARE PART OF THE UNIVERSITY OF SOUTH ALABAMA  
MESONET AND ARE NOT UNDER NWS OR FAA QUALITY CONTROL.
 
 
ALZ061>064-020300-  
COASTAL ALABAMA  
 
CITY SKY/WX TMP DP RH WIND PRES REMARKS
 
MOBILE REG APT MOCLDY 81 75 82 SW7 29.99R  
BROOKLEY FIELD MOCLDY 85 75 72 CALM 29.99R  
USA CAMPUS* NOT AVBL  
DOG RIVER* NOT AVBL  
 
 
CITY SKY/WX TMP DP RH WIND PRES REMARKS
 
GULF SHORES CLEAR 84 79 85 SW7 29.98S HX 96  
 

 
 
ALZ051>060-020300-  
INTERIOR SOUTHWEST AND SOUTH CENTRAL ALABAMA  
 
CITY SKY/WX TMP DP RH WIND PRES REMARKS
 
GREENVILLE MOCLDY 83 75 77 SW5 29.98R THUNDER  
EVERGREEN MOCLDY 85 77 77 SW6 29.97R HX 95  
ATMORE* N/A N/A N/A N/A CALM 29.99S  
ANDALUSIA/OPP PTCLDY 85 76 74 S7 29.98R  
ANDALUSIA* N/A 84 77 79 SW5 29.99R  
FLORALA APT CLEAR 84 76 76 SW7 30.00R  
FLORALA* NOT AVBL  
 

 
 
FLZ001>006-020300-  
WESTERN FLORIDA PANHANDLE  
 
CITY SKY/WX TMP DP RH WIND PRES REMARKS
 
PENSACOLA CLEAR 85 78 80 W7 29.98R HX 96  
NAS PENSACOLA CLEAR 81 77 88 SW5 29.98R  
MILTON NOT AVBL  
WHTNG S FIELD PTCLDY 83 75 77 CALM 29.98  
 
 
CITY SKY/WX TMP DP RH WIND PRES REMARKS
 
JAY* NOT AVBL  
DUKE FIELD CLEAR 83 77 81 S5 29.98R  
CRESTVIEW PTCLDY 84 77 79 SW6 29.99R  
VALPARAISO CLEAR 85 78 81 CALM 29.97S HX 96  
DESTIN CLEAR 87 78 74 VRB5 29.98R HX 100  
 

 
 
MSZ076-079-020300-  
INTERIOR SOUTHEAST MISSISSIPPI  
 
CITY SKY/WX TMP DP RH WIND PRES REMARKS
 
LEAKESVILLE* NOT AVBL  
AGRICOLA* NOT AVBL  
 

 
 
MARINE OBSERVATIONS  
 
STATION/POSITION TIME TEMP WIND PRES WAVE
 
AIR SEA DIR/SP/G HT/PER  
(UTC) (F) (DEG/KT/KT) (MB) (FT/S)  
PETIT BOIS ISLND 0124 87 280/ 8/ 11 1015.6  
E DAUPHIN ISLAND 0200 87 230/ 10/ 14 1015.0F  
MIDDLE BAY LIGHT 0130 87 220/ 16 1014.9R  
USCG MOBILE BAY 0124 86 88 280/ 5/ 6 1014.6  
STATE DOCKS 0124 87 87 1015.5  
WEEKS BAY 0045 86 1015.0S  
FORT MORGAN 0124 86 240/ 17/ 19 1015.1  
12 S ORANGE BCH 0200 86 230/ 14/ 17 N/A  
PENSACOLA BAY 0124 87 89 340/ 1/ 6 1015.2  
64 S DAUPHIN ISL 0150 86 87 210/ 10/ 14 1016.1R 1/ 6  
 

 
 
SELECTED LOCATIONS ACROSS THE REGION  
 
CITY SKY/WX TMP DP RH WIND PRES REMARKS
 
NEW ORLEANS PTCLDY 84 75 74 NW5 30.00R  
GULFPORT MOCLDY 80 73 79 SW5 29.97R  
PASCAGOULA AP MOCLDY 77 74 90 CALM 29.98R  
PASCAGOULA* NOT AVBL  
HATTIESBURG MOCLDY 80 74 81 S5 30.00S  
LAUREL MOCLDY 78 75 90 SW5 30.01R  
MERIDIAN MOCLDY 79 71 76 SW6 30.00R  
JACKSON MOCLDY 81 75 82 E5 29.99R  
MONTGOMERY MOCLDY 79 77 94 S3 29.97R  
TROY PTCLDY 78 71 79 CALM 29.98R  
ASHFORD* N/A 84 77 79 SW5 29.99R  
DOTHAN RAIN 80 75 84 SW21G26 30.02R  
PANAMA CITY CLEAR 83 79 88 S3 29.99R  
 

 
 
 
 
CLICK HERE TO GO TO PREVIOUS BULLETINS.

The Nexlab AL Page
The Nexlab FL Page
The Nexlab MS Page Main Text Page